Observer details:
159 Monte Agliale.  Observer M. M. M. Santangelo.  0.51-m f/4.5 reflector
    + CCD.
170 Observatorio de Begues.  Observer J. Manteca.  0.31-m f/6.3
    Schmidt-Cassegrain + CCD.
198 Wildberg.  Observer R. Apitzsch.  0.235-m Schmidt-Cassegrain + CCD.
213 Observatorio Montcabre.  Observer R. Naves N.  Measurer M. Campas.  0.25-m
    f/3.3 Schmidt-Cassegrain + CCD.
300 Bisei Spaceguard Center--BATTeRS.  Observers T. Urata, D. Kuroda.  0.25-m
    f/5.0 reflector + CCD.
413 Siding Spring.  Observers G. J. Garradd, R. H. McNaught.  1.0-m f/8
    reflector + CCD.
428 Reedy Creek.  Observer J. Broughton.  0.25-m f/6.3 Schmidt-Cassegrain + CCD.
474 Mount John Observatory, Lake Tekapo.  Observer P. M. Kilmartin.  0.6-m
    f/6.4 reflector.
599 Campo Imperatore-CINEOS.  Observer A. Boattini.  Measurer A. Boattini,
    F. Bernardi, A. Di Paola, M. Tombelli.  0.6-m Schmidt + CCD.
608 Haleakala-NEAT/MSSS.  Observers E. F. Helin, S. Pravdo, K. Lawrence,
    K. Kuluhiwa, P. Kervin, R. Maeda, J. Africano, M. Hicks.  1.2-m reflector
    + CCD.
620 Observatorio Astronomico de Mallorca.  Observers S. Sanchez, R. Pacheco.
    0.40-m f/2.0 Schmidt + CCD.
649 Powell Observatory, Louisburg.  Observers K. Smalley, R. Fredrick,
    R. Trentman, M. Glaze.  0.75-m Newtonian + CCD.
670 Camarillo.  Observer J. E. Rogers.  0.30-m f/6.7 Helin Telescope + CCD.
704 Lincoln Laboratory ETS, New Mexico.  Observers M. Blythe, F. Shelly,
    M. Bezpalko, R. Huber, L. Manguso, S. Adams, J. Piscitelli.  Measurers
    J. Stuart, R. Sayer, J. B. Evans, H. Viggh.  1.0-m f/2.15 reflector + CCD.
734 Farpoint Observatory.  Observer G. Hug.  0.31-m Schmidt-Cassegrain + CCD.
859 Wykrota Observatory-CEAMIG.  Observer C. Jacques.  0.3-m f/3.3
    Schmidt-Cassegrain + CCD.
952 Marxuquera.  Observer J. J. Gomez.  0.25-m f/4.2 Schmidt-Cassegrain + CCD.
J95 Great Shefford.  Observer P. Birtwhistle.  0.3-m Schmidt-Cassegrain + CCD.

Orbital elements:
    P/2002 O5 (NEAT)
T 2002 Aug. 2.8726 TT                                   MPC
q   1.182743             (2000.0)            P               Q
n   0.1645655      Peri.   15.1304      +0.4343208      +0.8289063
a   3.297945       Node   281.7069      -0.8592998      +0.2639112
e   0.641370       Incl.   21.1016      -0.2701282      +0.4932193
P   5.99
From 82 observations 2002 July 30-Aug. 2.  Elements uncertain.

Ephemeris:
    P/2002 O5 (NEAT)
Date    TT    R. A. (2000) Decl.     Delta      r     Elong.  Phase   m1    m2
2002 07 25    15 46.32   -11 09.3    0.324    1.188   114.7    51.0  17.3
2002 08 04    16 24.10   -00 56.7    0.342    1.183   111.4    53.0  17.4
2002 08 14    17 02.07   +07 22.3    0.376    1.191   109.2    53.4  17.6
2002 08 24    17 39.18   +13 27.4    0.424    1.212   108.3    52.4  18.0
2002 09 03    18 14.84   +17 31.7    0.481    1.246   108.2    50.3  18.4
2002 09 13    18 49.01   +19 59.7    0.548    1.290   108.6    47.7  18.8
2002 09 23    19 21.73   +21 17.9    0.622    1.343   109.1    44.9  19.2
2002 10 03    19 53.02   +21 48.0    0.705    1.403   109.5    42.3  19.7
2002 10 13    20 22.98   +21 47.6    0.798    1.469   109.3    39.9  20.2
2002 10 23    20 51.64   +21 31.3    0.902    1.540   108.5    37.8  20.7
2002 11 02    21 19.01   +21 09.1    1.016    1.614   106.9    36.0  21.1
2002 11 12    21 45.18   +20 48.5    1.143    1.690   104.6    34.5  21.6
2002 11 22    22 10.21   +20 34.3    1.280    1.768   101.6    33.2  22.0

Gareth V. Williams           (C) Copyright 2002 MPC           M.P.E.C. 2002-P06

Read MPEC 2002-P05 Read MPEC 2002-P07


Our Web policy. Index to the CBAT/MPC/ICQ pages.

